Vorticity
4 4 4 4 5 2 9 8 -8 5 4 2 1 2 5 3 3 -3 23 5 2 13 -1 4 3 2 0 1 4 3 8 5 5 7 6 6 6 7 8 7 7 6 6 6 7 7 9 9 11
4 5 3 4 -7 0 10 8 15 -9 4 5 -1 1 6 8 1 -6 14 10 13 6 3 2 3 1 5 2 5 -2 3 8 5 6 7 7 6 6 6 7 7 6 5 5 6 6 5 5 5
6 5 6 2 14 -5 1 7 -0 -4 16 7 2 -2 3 7 4 -2 7 8 10 6 3 5 5 1 2 4 2 -2 8 8 7 6 7 7 7 7 6 6 6 7 8 7 7 6 6 5 5
9 8 10 -7 -7 12 -4 -2 -2 8 11 4 6 7 7 9 11 -6 -5 -1 17 7 7 5 5 -1 1 -0 5 -3 9 5 7 6 7 7 8 8 8 7 7 7 6 6 6 6 7 7 7
11 8 4 14 2 0 3 10 -8 -17 11 4 3 10 0 6 15 20 7 4 -1 9 6 4 4 3 -0 1 5 -4 9 3 7 6 6 7 7 8 8 8 8 8 9 8 8 7 7 7 7
9 5 5 0 1 5 2 -2 3 20 8 -1 8 0 3 8 11 4 10 2 7 9 7 3 7 4 -1 5 6 -3 9 2 6 5 6 6 6 7 7 8 8 8 8 8 8 8 7 7 6
6 4 -4 0 8 4 3 3 6 -7 -1 7 3 7 5 11 11 8 3 2 -1 8 10 5 8 -2 2 8 2 -1 6 4 3 5 5 5 4 6 6 6 6 7 7 7 7 7 6 6 6
8 8 6 4 2 4 9 7 8 10 10 4 -0 -1 4 17 -2 6 5 8 9 3 9 13 1 -1 4 6 5 0 4 6 2 5 4 4 2 3 7 7 7 6 6 5 5 5 5 5 5
6 2 5 2 7 2 11 12 13 9 10 -5 10 2 -2 -1 12 4 -2 -2 4 11 2 8 8 10 7 4 3 3 5 5 4 4 4 4 3 2 3 7 7 7 6 6 5 4 4 4 4
3 2 -1 7 4 3 4 3 8 5 -6 12 15 2 0 -1 -0 19 11 5 2 -5 9 0 3 5 6 3 5 4 5 5 4 4 5 4 4 4 3 5 7 6 6 6 5 4 4 4 4
5 2 4 4 3 2 -3 12 0 2 -2 4 7 15 5 4 4 8 -0 5 4 8 2 14 5 5 8 6 6 5 5 4 4 6 6 5 5 5 4 3 4 6 5 5 4 4 4 4 5
4 7 1 10 -1 9 3 13 -0 8 2 2 -1 11 9 16 10 11 17 15 12 11 11 3 5 7 2 2 5 7 6 3 5 6 6 6 5 6 5 5 4 5 4 4 4 6 3 4 4
9 10 10 5 8 7 1 16 3 10 2 9 -2 6 10 -1 -4 -3 4 -1 -3 -3 1 5 4 1 7 4 1 1 4 9 10 6 6 6 6 5 5 5 5 5 5 4 6 -3 2 3 4
27 8 2 12 7 2 9 6 7 13 10 1 -0 4 7 6 4 2 -3 -2 -4 1 6 4 -0 2 2 -1 0 9 9 11 10 10 8 7 7 6 6 6 5 6 5 6 1 -0 2 5 4
-22 10 43 -2 10 14 5 3 10 5 8 4 2 -2 0 2 4 3 2 0 4 6 11 3 8 6 2 0 3 6 10 7 6 8 9 10 8 6 7 7 7 6 6 5 1 4 7 5 4
5 4 4 35 7 9 8 10 17 19 7 14 6 -1 1 2 0 1 2 4 8 11 1 1 4 6 12 10 9 8 1 7 5 8 9 8 8 7 6 8 8 6 5 4 6 5 4 5 9
13 22 -1 0 23 3 14 15 23 9 9 10 10 14 1 -1 0 -3 -2 4 6 6 10 8 5 8 4 3 6 5 7 6 4 6 5 5 6 5 10 8 7 4 5 5 4 6 5 10 8
13 -2 11 11 26 6 2 9 9 0 -0 18 27 21 20 7 6 9 12 3 6 9 8 7 3 2 4 4 5 4 2 4 4 3 6 5 6 7 7 7 4 4 8 6 7 6 6 8 9
-3 16 6 3 4 4 7 -4 11 17 12 6 4 10 16 15 16 15 15 13 -1 -5 -6 3 3 1 1 0 1 6 4 5 5 4 6 6 4 6 8 5 6 8 8 7 3 7 4 8 9
20 -3 4 16 12 15 9 12 8 1 9 11 13 17 18 15 19 20 13 14 24 27 14 8 -0 8 6 3 3 2 4 4 4 7 8 4 5 2 6 4 7 8 11 6 5 6 3 8 11
11 1 7 -10 -3 1 6 32 27 15 13 11 12 9 6 9 12 12 10 8 11 12 25 28 7 3 -2 5 6 6 7 5 6 2 -0 3 8 9 6 5 8 4 9 9 4 4 5 5 12
7 19 3 4 7 8 4 -2 -9 -9 1 6 39 36 26 34 13 5 4 8 7 4 7 14 21 26 21 12 -2 -10 2 3 2 4 8 9 6 8 5 2 10 2 3 8 5 7 4 3 7
12 10 9 10 10 10 21 16 21 -3 25 54 -1 -4 16 10 20 22 24 29 26 10 6 10 7 5 5 18 20 27 -0 8 5 4 4 8 6 2 5 7 4 5 6 8 11 6 6 6 3
13 5 5 7 11 17 30 -1 16 28 25 12 17 15 12 11 12 8 7 9 14 22 29 20 15 9 7 7 7 19 10 8 4 8 4 5 6 10 11 10 7 3 4 2 4 7 7 11 8
5 13 6 10 9 2 -6 20 -20 -9 18 -3 0 4 5 4 6 7 7 7 7 7 8 10 18 24 17 11 8 8 11 5 13 8 10 3 -3 1 2 4 10 6 5 2 5 7 8 7 5
3 0 6 10 8 -2 19 14 11 20 7 10 -1 5 7 10 9 7 11 16 17 16 13 10 10 10 13 17 21 16 4 8 8 -0 8 4 5 8 11 1 6 9 0 3 3 4 8 4 2
26 5 2 1 6 7 9 22 15 15 2 5 12 1 4 -0 -0 3 6 5 3 2 2 4 6 8 6 10 10 11 14 14 11 17 18 7 5 4 2 6 7 3 8 8 2 0 10 22 17
-2 35 14 11 5 7 16 16 -10 13 20 14 3 -2 -0 1 3 3 2 2 2 2 1 0 0 1 4 7 5 11 18 15 23 5 13 12 18 18 11 7 11 15 9 7 7 3 2 14 4
3 5 3 7 4 9 5 21 32 -8 6 5 7 6 5 5 6 6 6 6 5 6 7 9 9 12 7 5 4 2 16 9 21 25 13 11 5 8 13 13 10 10 11 5 7 -3 16 11 13
12 6 -8 -4 20 9 5 13 17 18 1 0 8 4 -1 0 -0 25 27 24 14 8 24 25 11 11 31 23 7 5 9 17 23 24 26 10 9 8 12 14 5 14 5 12 2 18 21 -15 19
Height
3132 3135 3136 3138 3143 3138 3135 3136 3137 3140 3142 3143 3144 3145 3147 3149 3149 3152 3149 3151 3154 3155 3157 3158 3159 3161 3162 3163 3164 3164 3165 3165 3164 3164 3163 3162 3162 3162 3161 3160 3160 3160 3159 3159 3158 3158 3158 3158 3159
3128 3131 3133 3134 3135 3132 3131 3133 3135 3139 3140 3141 3142 3143 3145 3147 3148 3149 3149 3150 3152 3154 3156 3158 3159 3160 3162 3163 3164 3164 3164 3165 3165 3165 3164 3164 3163 3162 3161 3161 3160 3160 3159 3159 3159 3159 3158 3158 3159
3124 3127 3130 3129 3127 3125 3126 3131 3135 3137 3138 3139 3141 3142 3143 3145 3146 3148 3149 3150 3152 3153 3156 3157 3159 3160 3162 3163 3164 3165 3165 3165 3165 3165 3164 3164 3163 3163 3162 3161 3160 3160 3159 3159 3159 3158 3158 3159 3159
3119 3122 3124 3121 3119 3121 3125 3130 3133 3135 3136 3138 3140 3141 3142 3143 3145 3146 3148 3150 3151 3153 3156 3157 3158 3160 3161 3163 3163 3164 3165 3165 3165 3165 3165 3164 3164 3163 3162 3162 3161 3161 3160 3160 3159 3159 3159 3159 3159
3113 3115 3117 3113 3113 3118 3123 3127 3131 3132 3133 3135 3135 3137 3139 3141 3142 3144 3146 3149 3151 3153 3155 3156 3158 3159 3161 3162 3163 3163 3164 3165 3165 3165 3165 3164 3164 3163 3163 3162 3162 3161 3161 3160 3160 3159 3159 3159 3159
3108 3110 3108 3106 3110 3116 3120 3125 3127 3129 3131 3132 3133 3135 3137 3139 3140 3141 3143 3146 3148 3151 3153 3155 3156 3158 3159 3161 3162 3163 3163 3164 3164 3165 3165 3165 3164 3164 3163 3163 3162 3162 3161 3161 3160 3160 3160 3160 3160
3100 3102 3101 3105 3108 3112 3117 3121 3123 3126 3126 3129 3130 3133 3135 3136 3138 3140 3141 3143 3146 3148 3151 3153 3155 3157 3158 3159 3160 3161 3162 3163 3164 3164 3165 3165 3164 3164 3164 3163 3162 3162 3162 3161 3161 3161 3160 3160 3160
3096 3099 3098 3100 3103 3107 3113 3116 3120 3121 3123 3126 3126 3128 3132 3135 3136 3138 3140 3141 3144 3146 3149 3151 3153 3155 3156 3157 3159 3160 3161 3162 3162 3163 3164 3164 3164 3164 3164 3164 3163 3162 3162 3161 3161 3160 3160 3161 3161
3090 3092 3090 3095 3100 3104 3108 3112 3114 3116 3120 3122 3122 3126 3129 3132 3134 3136 3138 3140 3142 3144 3146 3149 3151 3152 3154 3155 3157 3158 3159 3160 3161 3162 3162 3163 3163 3163 3163 3163 3163 3162 3162 3161 3161 3160 3160 3160 3160
3082 3081 3084 3094 3097 3100 3105 3108 3109 3113 3116 3117 3119 3124 3123 3128 3130 3133 3136 3138 3140 3143 3144 3146 3148 3150 3151 3153 3155 3156 3157 3158 3159 3160 3160 3161 3161 3162 3162 3162 3162 3162 3161 3161 3160 3160 3160 3159 3159
3075 3075 3082 3088 3094 3097 3100 3103 3105 3108 3112 3114 3117 3120 3120 3122 3126 3129 3133 3135 3138 3140 3141 3143 3145 3147 3148 3150 3152 3153 3154 3155 3156 3157 3158 3158 3159 3160 3160 3160 3160 3160 3160 3160 3159 3159 3159 3158 3158
3070 3073 3078 3086 3091 3093 3095 3097 3099 3102 3108 3111 3113 3116 3117 3119 3121 3125 3127 3131 3133 3136 3139 3141 3142 3143 3145 3146 3149 3150 3151 3152 3153 3154 3155 3156 3157 3158 3158 3158 3158 3158 3158 3158 3158 3158 3158 3156 3156
3066 3069 3075 3082 3086 3088 3088 3090 3093 3095 3104 3107 3109 3111 3113 3115 3116 3119 3122 3125 3128 3131 3134 3137 3138 3140 3141 3143 3145 3146 3148 3149 3150 3151 3152 3153 3153 3154 3155 3155 3156 3156 3156 3156 3156 3156 3156 3155 3154
3065 3068 3072 3078 3080 3082 3083 3085 3087 3090 3099 3101 3104 3106 3108 3111 3114 3114 3117 3119 3122 3125 3128 3130 3133 3135 3137 3138 3140 3142 3143 3145 3146 3147 3148 3149 3150 3151 3151 3152 3153 3153 3153 3153 3153 3153 3153 3152 3151
3064 3067 3071 3073 3076 3078 3081 3078 3076 3085 3092 3095 3097 3100 3102 3105 3108 3112 3113 3114 3117 3120 3122 3124 3127 3129 3131 3133 3135 3137 3139 3140 3142 3143 3144 3146 3147 3147 3148 3149 3149 3149 3150 3150 3150 3150 3149 3149 3148
3061 3066 3066 3066 3071 3073 3078 3065 3073 3079 3085 3089 3092 3095 3096 3099 3103 3107 3109 3111 3111 3113 3115 3118 3121 3123 3125 3126 3129 3132 3134 3135 3137 3138 3140 3142 3143 3144 3144 3145 3145 3146 3146 3147 3147 3146 3145 3144 3144
3056 3056 3060 3065 3067 3071 3069 3062 3070 3076 3079 3079 3085 3088 3090 3092 3096 3101 3103 3105 3107 3107 3108 3110 3113 3116 3118 3120 3123 3126 3128 3129 3131 3133 3136 3138 3139 3140 3141 3141 3142 3142 3142 3142 3143 3142 3141 3140 3140
3048 3054 3058 3061 3064 3064 3064 3060 3064 3070 3072 3072 3076 3079 3081 3084 3088 3093 3095 3098 3100 3101 3102 3104 3107 3109 3112 3114 3116 3119 3122 3124 3126 3128 3131 3133 3134 3135 3136 3137 3137 3138 3138 3138 3138 3137 3136 3136 3135
3049 3052 3056 3059 3061 3061 3060 3058 3060 3065 3064 3064 3068 3071 3072 3075 3081 3082 3086 3088 3091 3093 3095 3098 3100 3103 3105 3106 3109 3112 3116 3118 3120 3122 3124 3127 3129 3130 3132 3133 3133 3133 3133 3134 3133 3132 3132 3131 3131
3045 3049 3054 3056 3056 3057 3056 3053 3056 3058 3058 3061 3063 3064 3066 3068 3071 3074 3076 3079 3081 3084 3086 3090 3093 3097 3098 3100 3102 3103 3109 3111 3113 3115 3118 3120 3122 3124 3126 3128 3128 3128 3128 3128 3128 3128 3127 3127 3126
3040 3047 3051 3054 3054 3055 3053 3049 3051 3054 3054 3055 3056 3057 3058 3059 3061 3065 3068 3070 3072 3073 3077 3080 3084 3088 3090 3093 3094 3095 3098 3101 3104 3107 3111 3114 3116 3118 3121 3122 3122 3122 3123 3123 3123 3122 3122 3122 3121
3038 3046 3049 3051 3053 3053 3053 3050 3048 3049 3048 3048 3049 3050 3052 3051 3054 3057 3059 3060 3063 3066 3069 3071 3075 3077 3080 3084 3084 3087 3088 3091 3096 3101 3105 3107 3107 3111 3114 3115 3116 3116 3116 3116 3117 3117 3116 3116 3116
3040 3045 3048 3049 3049 3050 3050 3053 3043 3044 3043 3044 3046 3046 3046 3048 3048 3049 3051 3052 3055 3059 3062 3064 3067 3068 3071 3072 3074 3077 3080 3083 3087 3092 3096 3098 3100 3101 3106 3108 3109 3110 3110 3110 3111 3111 3110 3110 3110
3040 3044 3046 3047 3048 3049 3045 3049 3041 3041 3042 3042 3042 3043 3044 3045 3046 3047 3048 3049 3049 3051 3054 3056 3059 3062 3063 3064 3066 3068 3071 3075 3079 3081 3085 3089 3092 3095 3097 3100 3101 3103 3105 3105 3104 3104 3104 3103 3103
3038 3041 3045 3049 3049 3047 3044 3046 3038 3040 3039 3039 3040 3041 3042 3043 3044 3045 3046 3047 3048 3049 3049 3049 3049 3051 3054 3055 3057 3060 3062 3066 3069 3073 3076 3080 3084 3086 3089 3091 3093 3095 3096 3097 3097 3097 3097 3096 3096
3035 3039 3040 3047 3048 3044 3043 3040 3036 3036 3037 3037 3038 3039 3039 3040 3041 3041 3042 3043 3042 3043 3043 3044 3045 3046 3046 3046 3048 3050 3053 3056 3059 3063 3067 3070 3074 3078 3080 3083 3084 3086 3088 3089 3089 3090 3089 3088 3087
3034 3037 3040 3042 3045 3043 3038 3036 3035 3034 3035 3036 3037 3037 3038 3038 3039 3039 3039 3038 3037 3037 3037 3037 3038 3040 3041 3041 3040 3041 3042 3044 3048 3053 3057 3060 3064 3068 3070 3073 3076 3078 3080 3081 3081 3082 3081 3081 3080
3033 3035 3039 3041 3048 3046 3036 3033 3030 3031 3033 3034 3034 3034 3036 3037 3036 3035 3034 3033 3032 3031 3030 3029 3028 3028 3029 3030 3032 3033 3033 3035 3038 3042 3046 3051 3054 3058 3061 3064 3067 3069 3071 3072 3073 3073 3073 3072 3072
3031 3032 3035 3037 3039 3040 3041 3029 3028 3030 3031 3032 3032 3033 3032 3031 3030 3029 3028 3026 3024 3022 3020 3019 3017 3015 3013 3016 3019 3023 3025 3026 3028 3032 3036 3041 3045 3049 3052 3055 3057 3059 3061 3063 3064 3064 3065 3064 3062
3028 3031 3033 3034 3037 3036 3036 3029 3027 3029 3030 3030 3031 3029 3028 3026 3025 3022 3019 3017 3015 3011 3008 3005 3004 3003 3001 3001 3005 3010 3016 3019 3020 3021 3026 3031 3037 3041 3044 3046 3049 3050 3052 3053 3054 3054 3055 3054 3053